,,Stat6,,Stat2,,Stat8,,Stat9,,Stat10,,Wind1,,Wind1,
time,status,PA1M_AVG,status,PR1M_SUM,status,RH1M_AVG,status,SR1M_AVG,status,TA1M_AVG,status,W1dAve1m,status,W1sAve1m,
2005-07-20, 00:00:00,VALID,920.111,VALID,0,VALID,99.854,VALID,0,VALID,19.0087,VALID,346,VALID,0.279576,
2005-07-20, 00:01:00,VALID,920.126,VALID,0,VALID,99.7116,VALID,0.0339617,VALID,19.0256,VALID,341,VALID,0.0704985,
2005-07-20, 00:02:00,VALID,920.145,VALID,0,VALID,99.6798,VALID,0,VALID,19.0318,VALID,271,VALID,0.527876,
2005-07-20, 00:03:00,VALID,920.149,VALID,0,VALID,99.7065,VALID,0,VALID,19.0549,VALID,268,VALID,0.165206,
2005-07-20, 00:04:00,VALID,920.146,VALID,0,VALID,99.7154,VALID,-0.0169808,VALID,19.0547,VALID,282,VALID,0.132813,
2005-07-20, 00:05:00,VALID,920.149,VALID,0,VALID,99.7701,VALID,0,VALID,19.0549,VALID,294,VALID,0.118924,
2005-07-20, 00:06:00,VALID,920.13,VALID,0,VALID,99.8578,VALID,0,VALID,19.0611,VALID,345,VALID,0.301897,
2005-07-20, 00:07:00,VALID,920.138,VALID,0,VALID,99.9695,VALID,0,VALID,19.0549,VALID,350,VALID,0.0376953,
2005-07-20, 00:08:00,VALID,920.113,VALID,0,VALID,100,VALID,-0.0339617,VALID,19.045,VALID,350,VALID,0.101385,
2005-07-20, 00:09:00,VALID,920.128,VALID,0,VALID,100,VALID,0.0169808,VALID,19.045,VALID,350,VALID,0.280362,
2005-07-20, 00:10:00,VALID,920.105,VALID,0,VALID,100,VALID,0,VALID,19.0291,VALID,350,VALID,0.254179,
2005-07-20, 00:11:00,VALID,920.117,VALID,0,VALID,100,VALID,0.0169808,VALID,19.0125,VALID,350,VALID,0.0478051,
2005-07-20, 00:12:00,VALID,920.131,VALID,0,VALID,100,VALID,0.0169808,VALID,19.0162,VALID,350,VALID,0,
2005-07-20, 00:13:00,VALID,920.151,VALID,0,VALID,100,VALID,-0.0849042,VALID,19.0174,VALID,350,VALID,0.0142912,
2005-07-20, 00:14:00,VALID,920.158,VALID,0,VALID,100,VALID,-0.118866,VALID,19.0273,VALID,350,VALID,0.0777344,
2005-07-20, 00:15:00,VALID,920.158,VALID,0,VALID,100,VALID,-0.101885,VALID,19.0208,VALID,350,VALID,0.00801282,
2005-07-20, 00:16:00,VALID,920.181,VALID,0,VALID,100,VALID,-0.0679233,VALID,19.0044,VALID,350,VALID,0,
2005-07-20, 00:17:00,VALID,920.192,VALID,0,VALID,100,VALID,-0.101885,VALID,19.0111,VALID,350,VALID,0,
2005-07-20, 00:18:00,VALID,920.193,VALID,0,VALID,100,VALID,-0.0849042,VALID,19.0047,VALID,350,VALID,0,
2005-07-20, 00:19:00,VALID,920.216,VALID,0,VALID,100,VALID,-0.101885,VALID,19.0047,VALID,350,VALID,0,
2005-07-20, 00:20:00,VALID,920.208,VALID,0,VALID,100,VALID,-0.101885,VALID,19.0109,VALID,350,VALID,0,
2005-07-20, 00:21:00,VALID,920.207,VALID,0,VALID,100,VALID,-0.135847,VALID,19.0114,VALID,350,VALID,0,
2005-07-20, 00:22:00,VALID,920.199,VALID,0,VALID,100,VALID,-0.101885,VALID,18.9982,VALID,350,VALID,0,
2005-07-20, 00:23:00,VALID,920.196,VALID,0,VALID,100,VALID,-0.101885,VALID,18.9918,VALID,350,VALID,0,
2005-07-20, 00:24:00,VALID,920.18,VALID,0,VALID,100,VALID,-0.101885,VALID,18.992,VALID,350,VALID,0,
2005-07-20, 00:25:00,VALID,920.16,VALID,0,VALID,100,VALID,-0.101885,VALID,18.9788,VALID,350,VALID,0,
2005-07-20, 00:26:00,VALID,920.148,VALID,0,VALID,100,VALID,-0.101885,VALID,18.9756,VALID,350,VALID,0,
2005-07-20, 00:27:00,VALID,920.133,VALID,0,VALID,100,VALID,-0.0849042,VALID,18.9791,VALID,350,VALID,0,
2005-07-20, 00:28:00,VALID,920.118,VALID,0,VALID,100,VALID,0,VALID,18.9742,VALID,350,VALID,0,
2005-07-20, 00:29:00,VALID,920.114,VALID,0,VALID,100,VALID,0,VALID,18.9747,VALID,350,VALID,0,
2005-07-20, 00:30:00,VALID,920.098,VALID,0,VALID,100,VALID,-0.0169808,VALID,18.9585,VALID,350,VALID,0,
2005-07-20, 00:31:00,VALID,920.079,VALID,0,VALID,100,VALID,0,VALID,18.9287,VALID,350,VALID,0.0488697,
2005-07-20, 00:32:00,VALID,920.062,VALID,0,VALID,100,VALID,0,VALID,18.9295,VALID,350,VALID,0.466518,
2005-07-20, 00:33:00,VALID,920.04,VALID,0,VALID,100,VALID,-0.0169808,VALID,18.8843,VALID,350,VALID,0.502841,
2005-07-20, 00:34:00,VALID,920.023,VALID,0,VALID,100,VALID,0,VALID,18.8321,VALID,9,VALID,0.690739,
2005-07-20, 00:35:00,VALID,920.005,VALID,0,VALID,100,VALID,-0.0169808,VALID,18.8065,VALID,25,VALID,0.659412,
2005-07-20, 00:36:00,VALID,919.99,VALID,0,VALID,100,VALID,0,VALID,18.777,VALID,28,VALID,0.607422,
2005-07-20, 00:37:00,VALID,919.974,VALID,0,VALID,100,VALID,0,VALID,18.7484,VALID,21,VALID,0.535792,
2005-07-20, 00:38:00,VALID,919.961,VALID,0,VALID,100,VALID,0,VALID,18.7258,VALID,20,VALID,0.549479,
2005-07-20, 00:39:00,VALID,919.931,VALID,0,VALID,100,VALID,0,VALID,18.697,VALID,29,VALID,0.649164,
2005-07-20, 00:40:00,VALID,919.903,VALID,0,VALID,100,VALID,0,VALID,18.6446,VALID,38,VALID,0.497692,
2005-07-20, 00:41:00,VALID,919.903,VALID,0,VALID,100,VALID,0,VALID,18.652,VALID,38,VALID,0.380682,
2005-07-20, 00:42:00,VALID,919.888,VALID,0,VALID,100,VALID,0,VALID,18.619,VALID,38,VALID,0.510557,
2005-07-20, 00:43:00,VALID,919.872,VALID,0,VALID,100,VALID,-0.0169808,VALID,18.6133,VALID,38,VALID,0.317708,
2005-07-20, 00:44:00,VALID,919.868,VALID,0,VALID,100,VALID,0,VALID,18.584,VALID,38,VALID,0.101004,
2005-07-20, 00:45:00,VALID,919.859,VALID,0,VALID,100,VALID,-0.0339617,VALID,18.5646,VALID,38,VALID,0,
2005-07-20, 00:46:00,VALID,919.846,VALID,0,VALID,100,VALID,0,VALID,18.5478,VALID,38,VALID,0,
2005-07-20, 00:47:00,VALID,919.83,VALID,0,VALID,100,VALID,0,VALID,18.5257,VALID,38,VALID,0,
2005-07-20, 00:48:00,VALID,919.817,VALID,0,VALID,100,VALID,0,VALID,18.519,VALID,38,VALID,0,
2005-07-20, 00:49:00,VALID,919.811,VALID,0,VALID,100,VALID,-0.0169808,VALID,18.4998,VALID,38,VALID,0.0836509,
2005-07-20, 00:50:00,VALID,919.795,VALID,0,VALID,100,VALID,0,VALID,18.4832,VALID,39,VALID,0.131324,
2005-07-20, 00:51:00,VALID,919.791,VALID,0,VALID,100,VALID,0,VALID,18.471,VALID,45,VALID,0.380269,
2005-07-20, 00:52:00,VALID,919.761,VALID,0,VALID,100,VALID,-0.0339617,VALID,18.4581,VALID,81,VALID,0.567042,
2005-07-20, 00:53:00,VALID,919.742,VALID,0,VALID,100,VALID,0,VALID,18.4357,VALID,84,VALID,0.585582,
2005-07-20, 00:54:00,VALID,919.716,VALID,0,VALID,100,VALID,-0.0169808,VALID,18.4,VALID,94,VALID,0.491806,
2005-07-20, 00:55:00,VALID,919.699,VALID,0,VALID,100,VALID,0,VALID,18.3806,VALID,94,VALID,0.498047,
2005-07-20, 00:56:00,VALID,919.674,VALID,0,VALID,100,VALID,-0.0169808,VALID,18.361,VALID,94,VALID,0.417014,
2005-07-20, 00:57:00,VALID,919.679,VALID,0,VALID,100,VALID,-0.0339617,VALID,18.3518,VALID,94,VALID,0.16543,
2005-07-20, 00:58:00,VALID,919.662,VALID,0,VALID,100,VALID,-0.0339617,VALID,18.3458,VALID,94,VALID,0.306402,
2005-07-20, 00:59:00,VALID,919.665,VALID,0,VALID,100,VALID,-0.0509425,VALID,18.3294,VALID,94,VALID,0.390425,
2005-07-20, 01:00:00,VALID,919.647,VALID,0,VALID,100,VALID,0,VALID,18.3101,VALID,94,VALID,0.197976,
2005-07-20, 01:01:00,VALID,919.663,VALID,0,VALID,100,VALID,-0.0169808,VALID,18.2877,VALID,94,VALID,0.0567336,
2005-07-20, 01:02:00,VALID,919.646,VALID,0,VALID,100,VALID,-0.0339617,VALID,18.2745,VALID,94,VALID,0.0118189,
2005-07-20, 01:03:00,VALID,919.652,VALID,0,VALID,100,VALID,-0.0169808,VALID,18.2517,VALID,94,VALID,0.105283,
2005-07-20, 01:04:00,VALID,919.651,VALID,0,VALID,100,VALID,-0.0339617,VALID,18.2425,VALID,94,VALID,0,
2005-07-20, 01:05:00,VALID,919.655,VALID,0,VALID,100,VALID,-0.0169808,VALID,18.236,VALID,94,VALID,0,
2005-07-20, 01:06:00,VALID,919.646,VALID,0,VALID,100,VALID,-0.0679233,VALID,18.2107,VALID,94,VALID,0,
2005-07-20, 01:07:00,VALID,919.656,VALID,0,VALID,100,VALID,-0.0509425,VALID,18.1876,VALID,94,VALID,0,
2005-07-20, 01:08:00,VALID,919.65,VALID,0,VALID,100,VALID,-0.0679233,VALID,18.162,VALID,94,VALID,0,
2005-07-20, 01:09:00,VALID,919.644,VALID,0,VALID,100,VALID,-0.0339617,VALID,18.1521,VALID,94,VALID,0,
2005-07-20, 01:10:00,VALID,919.624,VALID,0,VALID,100,VALID,-0.0169808,VALID,18.1357,VALID,94,VALID,0,
2005-07-20, 01:11:00,VALID,919.624,VALID,0,VALID,100,VALID,-0.0679233,VALID,18.1201,VALID,94,VALID,0,
2005-07-20, 01:12:00,VALID,919.618,VALID,0,VALID,100,VALID,-0.0339617,VALID,18.1141,VALID,94,VALID,0,
2005-07-20, 01:13:00,VALID,919.62,VALID,0,VALID,100,VALID,0,VALID,18.0806,VALID,94,VALID,0,
2005-07-20, 01:14:00,VALID,919.597,VALID,0,VALID,100,VALID,0,VALID,18.0806,VALID,94,VALID,0,
2005-07-20, 01:15:00,VALID,919.583,VALID,0,VALID,100,VALID,0.0339617,VALID,18.0841,VALID,94,VALID,0,
2005-07-20, 01:16:00,VALID,919.568,VALID,0,VALID,100,VALID,0.0169808,VALID,18.0553,VALID,94,VALID,0,
2005-07-20, 01:17:00,VALID,919.533,VALID,0,VALID,100,VALID,0,VALID,18.0329,VALID,94,VALID,0.00476372,
2005-07-20, 01:18:00,VALID,919.524,VALID,0,VALID,100,VALID,-0.0169808,VALID,17.9935,VALID,94,VALID,0,
2005-07-20, 01:19:00,VALID,919.518,VALID,0,VALID,100,VALID,0,VALID,17.9771,VALID,94,VALID,0,
2005-07-20, 01:20:00,VALID,919.508,VALID,0,VALID,100,VALID,-0.0169808,VALID,17.9649,VALID,94,VALID,0,
2005-07-20, 01:21:00,VALID,919.492,VALID,0,VALID,100,VALID,0,VALID,17.9425,VALID,94,VALID,0,
2005-07-20, 01:22:00,VALID,919.466,VALID,0,VALID,100,VALID,0,VALID,17.9266,VALID,94,VALID,0,
2005-07-20, 01:23:00,VALID,919.455,VALID,0,VALID,100,VALID,0.0169808,VALID,17.9035,VALID,94,VALID,0,
2005-07-20, 01:24:00,VALID,919.438,VALID,0,VALID,100,VALID,0,VALID,17.8909,VALID,94,VALID,0,
2005-07-20, 01:25:00,VALID,919.41,VALID,0,VALID,100,VALID,0,VALID,17.9234,VALID,94,VALID,0.110547,
2005-07-20, 01:26:00,VALID,919.385,VALID,0,VALID,100,VALID,0,VALID,18.0071,VALID,94,VALID,0.0241477,
2005-07-20, 01:27:00,VALID,919.373,VALID,0,VALID,100,VALID,0,VALID,18.0165,VALID,52,VALID,0.190341,
2005-07-20, 01:28:00,VALID,919.358,VALID,0,VALID,100,VALID,0,VALID,18.0686,VALID,302,VALID,0.35556,
2005-07-20, 01:29:00,VALID,919.347,VALID,0,VALID,100,VALID,-0.0169808,VALID,18.1399,VALID,302,VALID,0.363814,
2005-07-20, 01:30:00,VALID,919.318,VALID,0,VALID,100,VALID,0,VALID,18.1881,VALID,302,VALID,0.284157,
2005-07-20, 01:31:00,VALID,919.282,VALID,0,VALID,100,VALID,0,VALID,18.2363,VALID,302,VALID,0.0644055,
2005-07-20, 01:32:00,VALID,919.247,VALID,0,VALID,100,VALID,0,VALID,18.2139,VALID,302,VALID,0,
2005-07-20, 01:33:00,VALID,919.235,VALID,0,VALID,100,VALID,0.0169808,VALID,18.233,VALID,302,VALID,0,
2005-07-20, 01:34:00,VALID,919.199,VALID,0,VALID,100,VALID,-0.0339617,VALID,18.2044,VALID,302,VALID,0,
2005-07-20, 01:35:00,VALID,919.186,VALID,0,VALID,100,VALID,-0.118866,VALID,18.141,VALID,302,VALID,0,
2005-07-20, 01:36:00,VALID,919.175,VALID,0,VALID,100,VALID,-0.118866,VALID,18.0898,VALID,302,VALID,0,
2005-07-20, 01:37:00,VALID,919.168,VALID,0,VALID,100,VALID,-0.101885,VALID,18.0442,VALID,302,VALID,0,
2005-07-20, 01:38:00,VALID,919.157,VALID,0,VALID,100,VALID,-0.101885,VALID,17.9888,VALID,302,VALID,0,
2005-07-20, 01:39:00,VALID,919.144,VALID,0,VALID,100,VALID,-0.118866,VALID,17.9798,VALID,302,VALID,0,
2005-07-20, 01:40:00,VALID,919.13,VALID,0,VALID,100,VALID,-0.118866,VALID,17.957,VALID,302,VALID,0,
2005-07-20, 01:41:00,VALID,919.132,VALID,0,VALID,100,VALID,-0.101885,VALID,17.9217,VALID,302,VALID,0,
2005-07-20, 01:42:00,VALID,919.145,VALID,0,VALID,99.9598,VALID,-0.118866,VALID,17.8763,VALID,302,VALID,0.0466797,
2005-07-20, 01:43:00,VALID,919.137,VALID,0,VALID,99.4903,VALID,-0.0509425,VALID,17.7654,VALID,302,VALID,0.213423,
2005-07-20, 01:44:00,VALID,919.147,VALID,0,VALID,99.428,VALID,0,VALID,17.6753,VALID,302,VALID,0.249822,
2005-07-20, 01:45:00,VALID,919.14,VALID,0,VALID,99.8156,VALID,-0.0169808,VALID,17.6555,VALID,305,VALID,0.393229,
2005-07-20, 01:46:00,VALID,919.138,VALID,0,VALID,100,VALID,0,VALID,17.6619,VALID,307,VALID,0.0758929,
2005-07-20, 01:47:00,VALID,919.129,VALID,0,VALID,100,VALID,-0.0169808,VALID,17.6976,VALID,306,VALID,0.436773,
2005-07-20, 01:48:00,VALID,919.131,VALID,0,VALID,100,VALID,-0.0169808,VALID,17.7878,VALID,306,VALID,0.179116,
2005-07-20, 01:49:00,VALID,919.117,VALID,0,VALID,100,VALID,0,VALID,17.8332,VALID,306,VALID,0.0339177,
2005-07-20, 01:50:00,VALID,919.092,VALID,0,VALID,100,VALID,0,VALID,17.8431,VALID,306,VALID,0.175409,
2005-07-20, 01:51:00,VALID,919.068,VALID,0,VALID,100,VALID,-0.0509425,VALID,17.8558,VALID,305,VALID,0.357088,
2005-07-20, 01:52:00,VALID,919.029,VALID,0,VALID,100,VALID,-0.0339617,VALID,17.9176,VALID,300,VALID,0.237326,
2005-07-20, 01:53:00,VALID,919.021,VALID,0,VALID,100,VALID,0,VALID,17.9303,VALID,295,VALID,0.0382813,
2005-07-20, 01:54:00,VALID,919.009,VALID,0,VALID,100,VALID,-0.0169808,VALID,17.8625,VALID,295,VALID,0.227325,
2005-07-20, 01:55:00,VALID,918.988,VALID,0,VALID,100,VALID,-0.0679233,VALID,17.8145,VALID,294,VALID,0.278363,
2005-07-20, 01:56:00,VALID,918.964,VALID,0,VALID,100,VALID,-0.0169808,VALID,17.7979,VALID,288,VALID,0.453852,
2005-07-20, 01:57:00,VALID,918.937,VALID,0,VALID,100,VALID,-0.0169808,VALID,17.8498,VALID,285,VALID,0.282885,
2005-07-20, 01:58:00,VALID,918.906,VALID,0,VALID,100,VALID,-0.0509425,VALID,17.7426,VALID,285,VALID,0.349023,
2005-07-20, 01:59:00,VALID,918.878,VALID,0,VALID,100,VALID,-0.0169808,VALID,17.7723,VALID,283,VALID,0.542515,
2005-07-20, 02:00:00,VALID,918.855,VALID,0,VALID,100,VALID,-0.0169808,VALID,17.8272,VALID,282,VALID,0.166349,
2005-07-20, 02:01:00,VALID,918.837,VALID,0,VALID,100,VALID,0,VALID,17.8403,VALID,282,VALID,0.205163,
2005-07-20, 02:02:00,VALID,918.819,VALID,0,VALID,100,VALID,0,VALID,17.8265,VALID,283,VALID,0.477834,
2005-07-20, 02:03:00,VALID,918.812,VALID,0,VALID,100,VALID,-0.0169808,VALID,17.8364,VALID,284,VALID,0.231944,
2005-07-20, 02:04:00,VALID,918.808,VALID,0,VALID,100,VALID,-0.0169808,VALID,17.8556,VALID,284,VALID,0.0514482,
2005-07-20, 02:05:00,VALID,918.792,VALID,0,VALID,100,VALID,-0.0339617,VALID,17.8694,VALID,284,VALID,0,
2005-07-20, 02:06:00,VALID,918.781,VALID,0,VALID,100,VALID,-0.0339617,VALID,17.8627,VALID,284,VALID,0,
2005-07-20, 02:07:00,VALID,918.759,VALID,0,VALID,100,VALID,-0.0169808,VALID,17.7527,VALID,284,VALID,0,
2005-07-20, 02:08:00,VALID,918.747,VALID,0,VALID,100,VALID,-0.0679233,VALID,17.7142,VALID,284,VALID,0,
2005-07-20, 02:09:00,VALID,918.735,VALID,0,VALID,100,VALID,0,VALID,17.7075,VALID,328,VALID,0.22433,
2005-07-20, 02:10:00,VALID,918.721,VALID,0,VALID,100,VALID,0,VALID,17.6817,VALID,360,VALID,0.28497,
2005-07-20, 02:11:00,VALID,918.707,VALID,0,VALID,100,VALID,0,VALID,17.5913,VALID,360,VALID,0.0964753,
2005-07-20, 02:12:00,VALID,918.71,VALID,0,VALID,100,VALID,0,VALID,17.5692,VALID,360,VALID,0.228993,
2005-07-20, 02:13:00,VALID,918.695,VALID,0,VALID,100,VALID,0,VALID,17.5621,VALID,360,VALID,0.136347,
2005-07-20, 02:14:00,VALID,918.676,VALID,0,VALID,100,VALID,0.0169808,VALID,17.5653,VALID,360,VALID,0.150036,
2005-07-20, 02:15:00,VALID,918.665,VALID,0,VALID,100,VALID,0,VALID,17.5844,VALID,329,VALID,0.575707,
2005-07-20, 02:16:00,VALID,918.63,VALID,0,VALID,100,VALID,0.0169808,VALID,17.6169,VALID,312,VALID,0.14974,
2005-07-20, 02:17:00,VALID,918.606,VALID,0,VALID,100,VALID,0,VALID,17.604,VALID,312,VALID,0.0052689,
2005-07-20, 02:18:00,VALID,918.57,VALID,0,VALID,100,VALID,-0.0339617,VALID,17.6012,VALID,333,VALID,0.427326,
2005-07-20, 02:19:00,VALID,918.552,VALID,0,VALID,100,VALID,0,VALID,17.595,VALID,338,VALID,0.483445,
2005-07-20, 02:20:00,VALID,918.536,VALID,0,VALID,100,VALID,0,VALID,17.5886,VALID,337,VALID,0.215021,
2005-07-20, 02:21:00,VALID,918.531,VALID,0,VALID,100,VALID,-0.0169808,VALID,17.5528,VALID,337,VALID,0.243331,
2005-07-20, 02:22:00,VALID,918.513,VALID,0,VALID,100,VALID,-0.0339617,VALID,17.53,VALID,338,VALID,0.426847,
2005-07-20, 02:23:00,VALID,918.513,VALID,0,VALID,100,VALID,-0.0339617,VALID,17.485,VALID,347,VALID,0.566406,
2005-07-20, 02:24:00,VALID,918.509,VALID,0,VALID,100,VALID,0,VALID,17.4136,VALID,357,VALID,0.680414,
2005-07-20, 02:25:00,VALID,918.509,VALID,0,VALID,100,VALID,-0.0339617,VALID,17.4177,VALID,17,VALID,0.695668,
2005-07-20, 02:26:00,VALID,918.49,VALID,0,VALID,100,VALID,-0.0169808,VALID,17.3749,VALID,17,VALID,0.641768,
2005-07-20, 02:27:00,VALID,918.473,VALID,0,VALID,100,VALID,-0.0169808,VALID,17.3491,VALID,17,VALID,0.489955,
2005-07-20, 02:28:00,VALID,918.446,VALID,0,VALID,100,VALID,0,VALID,17.3499,VALID,17,VALID,0.36814,
2005-07-20, 02:29:00,VALID,918.437,VALID,0,VALID,100,VALID,-0.0169808,VALID,17.3301,VALID,17,VALID,0.314844,
2005-07-20, 02:30:00,VALID,918.42,VALID,0,VALID,100,VALID,0,VALID,17.34,VALID,17,VALID,0.371595,
2005-07-20, 02:31:00,VALID,918.422,VALID,0,VALID,100,VALID,0,VALID,17.3854,VALID,17,VALID,0.342862,
2005-07-20, 02:32:00,VALID,918.417,VALID,0,VALID,100,VALID,-0.0169808,VALID,17.4306,VALID,17,VALID,0.456032,
2005-07-20, 02:33:00,VALID,918.424,VALID,0,VALID,100,VALID,-0.0169808,VALID,17.4463,VALID,17,VALID,0.264863,
2005-07-20, 02:34:00,VALID,918.415,VALID,0,VALID,100,VALID,-0.0169808,VALID,17.4754,VALID,17,VALID,0.154204,
2005-07-20, 02:35:00,VALID,918.409,VALID,0,VALID,100,VALID,-0.0509425,VALID,17.4887,VALID,17,VALID,0.226207,
2005-07-20, 02:36:00,VALID,918.401,VALID,0,VALID,100,VALID,-0.0339617,VALID,17.4889,VALID,17,VALID,0.180959,
2005-07-20, 02:37:00,VALID,918.379,VALID,0,VALID,99.912,VALID,0,VALID,17.4597,VALID,17,VALID,0.280678,
2005-07-20, 02:38:00,VALID,918.39,VALID,0,VALID,99.7574,VALID,0,VALID,17.4244,VALID,17,VALID,0.1875,
2005-07-20, 02:39:00,VALID,918.367,VALID,0,VALID,99.8095,VALID,-0.0679233,VALID,17.3921,VALID,17,VALID,0.196243,
2005-07-20, 02:40:00,VALID,918.347,VALID,0,VALID,100,VALID,-0.0679233,VALID,17.3727,VALID,17,VALID,0.0180432,
2005-07-20, 02:41:00,VALID,918.331,VALID,0,VALID,100,VALID,-0.0679233,VALID,17.3919,VALID,17,VALID,0,
2005-07-20, 02:42:00,VALID,918.298,VALID,0,VALID,99.9941,VALID,-0.0339617,VALID,17.3822,VALID,17,VALID,0.00093006,
2005-07-20, 02:43:00,VALID,918.284,VALID,0,VALID,100,VALID,-0.0509425,VALID,17.3792,VALID,17,VALID,0,
2005-07-20, 02:44:00,VALID,918.269,VALID,0,VALID,100,VALID,-0.0169808,VALID,17.3955,VALID,17,VALID,0,
2005-07-20, 02:45:00,VALID,918.245,VALID,0,VALID,100,VALID,-0.0339617,VALID,17.3988,VALID,24,VALID,0.266387,
2005-07-20, 02:46:00,VALID,918.229,VALID,0,VALID,99.9476,VALID,0,VALID,17.4052,VALID,86,VALID,0.591974,
2005-07-20, 02:47:00,VALID,918.225,VALID,0,VALID,99.723,VALID,-0.0509425,VALID,17.3829,VALID,108,VALID,0.672247,
2005-07-20, 02:48:00,VALID,918.221,VALID,0,VALID,99.8629,VALID,-0.0169808,VALID,17.34,VALID,113,VALID,0.702753,
2005-07-20, 02:49:00,VALID,918.227,VALID,0,VALID,99.9349,VALID,-0.0509425,VALID,17.3213,VALID,113,VALID,0.639382,
2005-07-20, 02:50:00,VALID,918.215,VALID,0,VALID,100,VALID,-0.0339617,VALID,17.3054,VALID,123,VALID,0.540264,
2005-07-20, 02:51:00,VALID,918.223,VALID,0,VALID,100,VALID,-0.0339617,VALID,17.2757,VALID,124,VALID,0.312305,
2005-07-20, 02:52:00,VALID,918.223,VALID,0,VALID,100,VALID,0,VALID,17.2503,VALID,124,VALID,0.349144,
2005-07-20, 02:53:00,VALID,918.204,VALID,0,VALID,100,VALID,-0.0169808,VALID,17.2141,VALID,124,VALID,0.350836,
2005-07-20, 02:54:00,VALID,918.201,VALID,0,VALID,100,VALID,-0.0169808,VALID,17.2178,VALID,124,VALID,0.134337,
2005-07-20, 02:55:00,VALID,918.187,VALID,0,VALID,100,VALID,-0.0169808,VALID,17.1885,VALID,124,VALID,0.25728,
2005-07-20, 02:56:00,VALID,918.177,VALID,0,VALID,100,VALID,0,VALID,17.1595,VALID,124,VALID,0.129542,
2005-07-20, 02:57:00,VALID,918.162,VALID,0,VALID,100,VALID,-0.0339617,VALID,17.1404,VALID,124,VALID,0.216933,
2005-07-20, 02:58:00,VALID,918.149,VALID,0,VALID,100,VALID,-0.0679233,VALID,17.1307,VALID,124,VALID,0.100074,
2005-07-20, 02:59:00,VALID,918.141,VALID,0,VALID,100,VALID,-0.0509425,VALID,17.1113,VALID,124,VALID,0.130729,
2005-07-20, 03:00:00,VALID,918.15,VALID,0,VALID,100,VALID,-0.0509425,VALID,17.0855,VALID,124,VALID,0.330602,
2005-07-20, 03:01:00,VALID,918.131,VALID,0,VALID,100,VALID,0,VALID,17.0601,VALID,124,VALID,0.362233,
2005-07-20, 03:02:00,VALID,918.133,VALID,0,VALID,100,VALID,-0.0339617,VALID,17.0175,VALID,124,VALID,0.374238,
2005-07-20, 03:03:00,VALID,918.119,VALID,0,VALID,100,VALID,-0.0679233,VALID,17.0085,VALID,124,VALID,0.506904,
2005-07-20, 03:04:00,VALID,918.101,VALID,0,VALID,100,VALID,-0.0679233,VALID,17.0175,VALID,124,VALID,0.446265,
2005-07-20, 03:05:00,VALID,918.087,VALID,0,VALID,100,VALID,-0.0509425,VALID,17.047,VALID,124,VALID,0.299653,
2005-07-20, 03:06:00,VALID,918.089,VALID,0,VALID,100,VALID,-0.0679233,VALID,17.079,VALID,124,VALID,0.230664,
2005-07-20, 03:07:00,VALID,918.074,VALID,0,VALID,100,VALID,-0.0339617,VALID,17.0984,VALID,124,VALID,0.308594,
2005-07-20, 03:08:00,VALID,918.067,VALID,0,VALID,100,VALID,0,VALID,17.0827,VALID,124,VALID,0.302455,
2005-07-20, 03:09:00,VALID,918.06,VALID,0,VALID,100,VALID,-0.0339617,VALID,17.0599,VALID,124,VALID,0.165334,
2005-07-20, 03:10:00,VALID,918.047,VALID,0,VALID,100,VALID,-0.0509425,VALID,17.0532,VALID,124,VALID,0.00363372,
2005-07-20, 03:11:00,VALID,918.03,VALID,0,VALID,100,VALID,-0.0509425,VALID,17.0403,VALID,124,VALID,0,
2005-07-20, 03:12:00,VALID,918.023,VALID,0,VALID,100,VALID,-0.0509425,VALID,17.0543,VALID,124,VALID,0.0870276,
2005-07-20, 03:13:00,VALID,918.003,VALID,0,VALID,100,VALID,-0.0679233,VALID,17.0562,VALID,124,VALID,0.252046,
2005-07-20, 03:14:00,VALID,917.991,VALID,0,VALID,100,VALID,-0.0509425,VALID,17.0861,VALID,124,VALID,0,
2005-07-20, 03:15:00,VALID,917.97,VALID,0,VALID,100,VALID,-0.0679233,VALID,17.1081,VALID,124,VALID,0,
2005-07-20, 03:16:00,VALID,917.971,VALID,0,VALID,100,VALID,-0.0509425,VALID,17.1371,VALID,124,VALID,0.161519,
2005-07-20, 03:17:00,VALID,917.939,VALID,0,VALID,100,VALID,-0.0509425,VALID,17.1993,VALID,124,VALID,0.244531,
2005-07-20, 03:18:00,VALID,917.942,VALID,0,VALID,100,VALID,-0.0509425,VALID,17.1987,VALID,124,VALID,0.146723,
2005-07-20, 03:19:00,VALID,917.926,VALID,0,VALID,100,VALID,-0.0509425,VALID,17.2049,VALID,124,VALID,0,
2005-07-20, 03:20:00,VALID,917.912,VALID,0,VALID,100,VALID,-0.0509425,VALID,17.2245,VALID,124,VALID,0,
2005-07-20, 03:21:00,VALID,917.901,VALID,0,VALID,100,VALID,-0.0849042,VALID,17.257,VALID,124,VALID,0,
2005-07-20, 03:22:00,VALID,917.893,VALID,0,VALID,100,VALID,-0.0169808,VALID,17.3088,VALID,124,VALID,0,
2005-07-20, 03:23:00,VALID,917.889,VALID,0,VALID,100,VALID,-0.0169808,VALID,17.3633,VALID,124,VALID,0,
2005-07-20, 03:24:00,VALID,917.877,VALID,0,VALID,100,VALID,-0.0339617,VALID,17.402,VALID,124,VALID,0,
2005-07-20, 03:25:00,VALID,917.877,VALID,0,VALID,100,VALID,-0.0339617,VALID,17.428,VALID,124,VALID,0.276278,
2005-07-20, 03:26:00,VALID,917.869,VALID,0,VALID,99.9952,VALID,-0.0509425,VALID,17.4179,VALID,124,VALID,0.440696,
2005-07-20, 03:27:00,VALID,917.868,VALID,0,VALID,99.6175,VALID,-0.0339617,VALID,17.3635,VALID,124,VALID,0.453906,
2005-07-20, 03:28:00,VALID,917.86,VALID,0,VALID,99.3441,VALID,-0.0339617,VALID,17.2727,VALID,125,VALID,0.709821,
2005-07-20, 03:29:00,VALID,917.86,VALID,0,VALID,99.6417,VALID,-0.0169808,VALID,17.2019,VALID,124,VALID,0.73819,
2005-07-20, 03:30:00,VALID,917.858,VALID,0,VALID,100,VALID,-0.0679233,VALID,17.1728,VALID,125,VALID,0.706836,
2005-07-20, 03:31:00,VALID,917.851,VALID,0,VALID,100,VALID,-0.0339617,VALID,17.1404,VALID,125,VALID,0.382227,
2005-07-20, 03:32:00,VALID,917.836,VALID,0,VALID,100,VALID,0,VALID,17.1117,VALID,125,VALID,0.348011,
2005-07-20, 03:33:00,VALID,917.825,VALID,0,VALID,100,VALID,0,VALID,17.0861,VALID,129,VALID,0.64668,
2005-07-20, 03:34:00,VALID,917.822,VALID,0,VALID,100,VALID,-0.0509425,VALID,17.1021,VALID,145,VALID,0.843378,
2005-07-20, 03:35:00,VALID,917.8,VALID,0,VALID,100,VALID,-0.0169808,VALID,17.1442,VALID,144,VALID,0.733964,
2005-07-20, 03:36:00,VALID,917.8,VALID,0,VALID,100,VALID,-0.0509425,VALID,17.1242,VALID,139,VALID,0.618712,
2005-07-20, 03:37:00,VALID,917.788,VALID,0,VALID,100,VALID,-0.0169808,VALID,17.1018,VALID,140,VALID,0.458394,
2005-07-20, 03:38:00,VALID,917.786,VALID,0,VALID,100,VALID,0,VALID,17.0534,VALID,139,VALID,0.586846,
2005-07-20, 03:39:00,VALID,917.765,VALID,0,VALID,100,VALID,-0.0169808,VALID,17.0014,VALID,130,VALID,0.475291,
2005-07-20, 03:40:00,VALID,917.765,VALID,0,VALID,100,VALID,-0.0339617,VALID,16.9568,VALID,125,VALID,0.40346,
2005-07-20, 03:41:00,VALID,917.75,VALID,0,VALID,100,VALID,0,VALID,16.9078,VALID,125,VALID,0.468932,
2005-07-20, 03:42:00,VALID,917.736,VALID,0,VALID,100,VALID,-0.0339617,VALID,16.9082,VALID,125,VALID,0.644176,
2005-07-20, 03:43:00,VALID,917.718,VALID,0,VALID,100,VALID,0.101885,VALID,16.8908,VALID,124,VALID,0.552379,
2005-07-20, 03:44:00,VALID,917.716,VALID,0,VALID,100,VALID,0.0849042,VALID,16.8938,VALID,120,VALID,0.719638,